Flag for Norway Weather past 2 weeks in Fetsund, Norway

Now
39 °F

Passing clouds.


Feels Like: 35 °F
Forecast: 40 / 55 °F
Wind: 5 mph from Southwest

Location: Oslo-Blindern

Current Time: May 23, 2015 at 6:56:26 AM

Latest Report: May 23, 2015 at 5:00 AM


Visibility: 47 mi

Pressure: 29.75 "Hg

Humidity: 77%

Dew point: 32 °F

Location of FetsundLocation

Historic Weather in Fetsund — Graph

°F

Fetsund temperature yesterday

Maximum temperature yesterday: 53 °F (at 4:00 PM)
Minimum temperature yesterday: 46 °F (at 6:00 AM)
Average temperature yesterday: 50 °F

Past Weeks' High & Low Weather Summary

 TemperatureHumidityPressure
High62 °F (May 15, 5:00 PM)98% (May 13, 1:00 AM)30.13 "Hg (May 13, 1:00 AM)
Low32 °F (May 9, 4:00 AM)25% (May 15, 4:00 PM)29.44 "Hg (May 19, 11:00 AM)
Average48 °F68%29.81 "Hg
* Reported May 8 6:00 AM — May 23 5:00 AM, Fetsund, Weather by CustomWeather, © 2015

Note: Actual official high and low records may vary slightly from our data, if they occured in-between our weather recording intervals... More about our weather records

Advertising

Fetsund weather history for previous 24 hours

 ConditionsComfort  
Time TempWeatherWind HumidityBarometerVisibility
5:00 AM
Sat, May 23
39 °FPassing clouds.5 mph77%29.75 "Hg47 mi
4:00 AM40 °FChilly.2 mph69%29.77 "HgN/A
3:00 AM41 °FQuite cool.3 mph63%29.77 "HgN/A
2:00 AM41 °FPassing clouds.3 mph64%29.78 "Hg47 mi
1:00 AM43 °FQuite cool.5 mph56%29.76 "HgN/A
12:00 AM45 °FQuite cool.3 mph58%29.74 "HgN/A
11:00 PM
Fri, May 22
47 °FCool.3 mph55%29.72 "HgN/A
10:00 PM49 °FCool.5 mph60%29.70 "HgN/A
9:00 PM52 °FCool.6 mph57%29.69 "HgN/A
8:00 PM53 °FOvercast.5 mph68%29.70 "Hg43 mi
7:00 PM52 °FCool.5 mph90%29.72 "HgN/A
6:00 PM52 °FCool.6 mph91%29.74 "HgN/A
5:00 PM53 °FOvercast.6 mph86%29.76 "Hg9 mi
4:00 PM53 °FCool.5 mph85%29.78 "HgN/A
3:00 PM52 °FCool.6 mph83%29.81 "HgN/A
2:00 PM52 °FOvercast.6 mph82%29.84 "Hg25 mi
1:00 PM52 °FCool.6 mph83%29.87 "HgN/A
12:00 PM51 °FCool.6 mph83%29.89 "HgN/A
11:00 AM50 °FLight rain. Low clouds.6 mph87%29.91 "Hg34 mi
10:00 AM50 °FCool.5 mph88%29.93 "HgN/A
9:00 AM48 °FCool.5 mph90%29.94 "HgN/A
8:00 AM47 °FCool.3 mph92%29.95 "HgN/A
7:00 AM47 °FCool.3 mph83%29.95 "HgN/A
6:00 AM46 °FCool.3 mph91%29.96 "HgN/A
Weather by CustomWeather, © 2015

See weather overviewHow to use our weather pages